Location: Czu?�w
(50.1404°N, 18.9919°E)
Time: 03:32:49
(UTC+00:00)

Meteor 2-3 Rocket - Pass Details

Date: 27 October 2020
Orbit: 842 x 885 km, 81.2° (Epoch: 24 November)

Event Time Altitude Azimuth Distance (km) Brightness Sun altitude
Rises 18:27:35 0° 347° (NNW) 3,454 7.2 -29.1°
Reaches altitude 10° 18:30:01 10° 347° (NNW) 2,519 6.5 -29.4°
Enters shadow 18:34:41 61° 347° (NNW) 985 4.0 -30.2°
